Chadron, NE

3:33 AM MDT on September 30, 2016 (GMT -0600)
Chadron Municipal

Weather History for KCDR - March, 2013

Change the Weather History Date:

Sunday, March 31, 2013

  Actual Average Record
Temperature  
Mean Temperature 45 °F 40 °F  
Max Temperature 64 °F 55 °F 85 °F (1946)
Min Temperature 26 °F 25 °F 2 °F (1954)
Degree Days  
Heating Degree Days 20 25  
Month to date heating degree days 873 906  
Since 1 July heating degree days 5769 6157  
Cooling Degree Days 0 0  
Month to date cooling degree days 0 0  
Year to date cooling degree days 0 0  
Moisture  
Dew Point 28 °F    
Average Humidity 64    
Maximum Humidity 100    
Minimum Humidity 27    
Precipitation  
Precipitation 0.00 in 0.04 in 0.40 in (1895)
Month to date precipitation 0.64 1.23  
Year to date precipitation 1.49 2.20  
Sea Level Pressure  
Sea Level Pressure 30.09 in    
Wind  
Wind Speed 11 mph (NNW)    
Max Wind Speed 28 mph    
Max Gust Speed 38 mph    
Visibility 10 miles    
Events      
T = Trace of Precipitation, MM = Missing Value Source: NWS Daily Summary

Daily Weather History Graph

Daily Weather History Graph

Search for Another Location

Airport or City:

Trip Planner

Search our weather history database for the weather conditions in past years. The results will help you decide how hot, cold, wet, or windy it might be!

Date:

Astronomy

Mar. 31, 2013 Rise Set
Actual Time 6:35 AM MDT 7:17 PM MDT
Civil Twilight 6:07 AM MDT 7:46 PM MDT
Nautical Twilight 5:33 AM MDT 8:20 PM MDT
Astronomical Twilight 4:58 AM MDT 8:55 PM MDT
Moon No Moon Rise 9:19 AM MDT (3/31)
Length of Visible Light 13h 39m
Length of Day
12h 42m
Waning Gibbous, 77% of the Moon is Illuminated
Mar 31
Waning Gibbous
Apr 2
Last Quarter
Apr 10
New
Apr 18
First Quarter
Apr 25
Full

Hourly Weather History & Observations

Time (MDT) Temp. Windchill Dew Point Humidity Pressure Visibility Wind Dir Wind Speed Gust Speed Precip Events Conditions
12:53 AM 33.1 °F - 30.9 °F 92% 30.19 in 10.0 mi Calm Calm - N/A   Clear
1:53 AM 33.1 °F - 30.0 °F 89% 30.18 in 10.0 mi Calm Calm - N/A   Clear
2:53 AM 28.9 °F 22.8 °F 27.0 °F 92% 30.17 in 10.0 mi WSW 5.8 mph - N/A   Clear
3:53 AM 28.0 °F 22.8 °F 26.1 °F 92% 30.15 in 10.0 mi WSW 4.6 mph - N/A   Clear
4:53 AM 27.0 °F 23.0 °F 26.1 °F 96% 30.14 in 10.0 mi SW 3.5 mph - N/A   Clear
5:53 AM 26.1 °F 20.5 °F 24.1 °F 92% 30.14 in 10.0 mi WSW 4.6 mph - N/A   Clear
6:53 AM 26.1 °F - 23.0 °F 88% 30.12 in 9.0 mi Calm Calm - N/A   Clear
7:53 AM 30.0 °F 25.2 °F 27.0 °F 88% 30.10 in 9.0 mi SW 4.6 mph - N/A   Clear
8:53 AM 39.9 °F 35.1 °F 35.1 °F 83% 30.06 in 9.0 mi WSW 6.9 mph - N/A   Clear
9:53 AM 51.1 °F - 39.0 °F 63% 30.00 in 10.0 mi WSW 12.7 mph - N/A   Clear
10:53 AM 57.0 °F - 35.1 °F 44% 29.97 in 10.0 mi West 19.6 mph 25.3 mph N/A   Clear
11:53 AM 61.0 °F - 35.1 °F 38% 29.96 in 10.0 mi WNW 19.6 mph 24.2 mph N/A   Clear
12:53 PM 62.1 °F - 33.1 °F 34% 29.96 in 10.0 mi WNW 17.3 mph 27.6 mph N/A   Clear
1:53 PM 63.0 °F - 30.9 °F 30% 29.96 in 10.0 mi NW 19.6 mph 27.6 mph N/A   Clear
2:53 PM 63.0 °F - 28.0 °F 27% 29.95 in 10.0 mi NNW 21.9 mph 33.4 mph N/A   Mostly Cloudy
3:23 PM 60.8 °F - 32.0 °F 34% 29.92 in 10.0 mi North 21.9 mph - N/A   Overcast
3:53 PM 60.1 °F - 33.1 °F 36% 29.98 in 10.0 mi NNE 18.4 mph 24.2 mph N/A   Overcast
4:53 PM 57.9 °F - 32.0 °F 37% 30.01 in 10.0 mi NE 19.6 mph - N/A   Overcast
5:53 PM 48.9 °F - 27.0 °F 43% 30.09 in 10.0 mi NE 20.7 mph 26.5 mph N/A   Overcast
6:53 PM 46.9 °F - 25.0 °F 42% 30.12 in 10.0 mi ENE 10.4 mph - N/A   Overcast
7:53 PM 39.9 °F 32.1 °F 21.0 °F 47% 30.18 in 10.0 mi NE 13.8 mph - N/A   Overcast
8:53 PM 36.0 °F 26.7 °F 21.0 °F 55% 30.20 in 10.0 mi ENE 15.0 mph - N/A   Clear
9:53 PM 34.0 °F 26.0 °F 21.9 °F 61% 30.21 in 10.0 mi ENE 10.4 mph - N/A   Clear
10:53 PM 30.0 °F 23.2 °F 21.9 °F 72% 30.22 in 10.0 mi NE 6.9 mph - N/A   Clear
11:36 PM 30.2 °F 21.3 °F 24.8 °F 80% 30.19 in 9.0 mi ENE 10.4 mph - N/A   Mostly Cloudy
11:53 PM 32.0 °F 24.2 °F 26.1 °F 79% 30.24 in 9.0 mi NE 9.2 mph - N/A   Overcast